Find KUIPER-00480

NORAD ID: 68876 Int'l Des: 2026-095N Owner: kuiper Country: USA Constellation: kuiper operational
LEOCIRCULAR

Live-Position

3D-Globus wird geladen...

Über KUIPER-00480

Beschreibung wird geladen...

Nächste Überflüge

Passes for default location (London). Set your location on the main map for personalized predictions.

Höhenverlauf

Loading altitude history...

Zweizeiliger Elementsatz

1 68876U 26095N 26120.66670139 -.00007750 00000-0 -20058-3 0 9995
2 68876 51.8760 112.1691 0006730 116.9921 56.7023 15.36941942 1648
Epoch: 30. Apr. 2026 • Age: 32 hours

Aktueller Status

Höhe 474.6 km
Geschwindigkeit 7.63 km/s
Subsatellitenpunkt -44.29°S, 159.97°W
Typ internet

Most Searched